Location: Praha
(50.0830°N, 14.4670°E)
Time: 17:43:41
(UTC+02:00)

ISS - Pass Details

Date: 18 September 2020
Orbit: 419 x 420 km, 51.6° (Epoch: 24 September)

Event Time Altitude Azimuth Distance (km) Brightness Sun altitude
Rises 21:37:48 0° 244° (WSW) 2,360 0.5 -23.4°
Reaches altitude 10° 21:39:54 10° 242° (WSW) 1,498 -0.6 -23.7°
Enters shadow 21:40:57 19° 239° (WSW) 1,080 -1.5 -23.8°
